Location: Black River Observatory
(43.1000°N, 82.6200°W)
Time: 18:33:26
(UTC-04:00)

Daily predictions for brighter satellites

Satellite Brightness Start Highest point End
(mag) Time Altitude Azimuth Time Altitude Azimuth Time Altitude Azimuth
Cosmos 220 Rocket 4.2 20:58:48 10° NNW 21:03:16 80° WSW 21:07:42 10° SSE
Cosmos 2242 Rocket 3.6 21:01:02 10° S 21:05:29 62° E 21:09:55 10° NNE
Cosmos 2195 Rocket 4.5 21:01:36 10° N 21:07:46 82° E 21:13:54 10° S
Cosmos 1939 Rocket 3.6 21:05:22 10° SE 21:09:04 36° ENE 21:12:44 10° N
Cosmos 1627 Rocket 4.5 21:03:33 10° N 21:09:47 82° E 21:15:55 10° S
Cosmos 1992 Rocket 4.1 21:05:13 10° S 21:10:19 56° ESE 21:15:28 10° NNE
Cosmos 2279 Rocket 4.1 21:05:31 10° SSE 21:11:34 56° E 21:17:38 10° NNE
Intercosmos 25 Rocket 3.2 21:10:01 10° S 21:13:13 62° E 21:17:29 10° NNE
Cosmos 2263 Rocket 2.2 21:09:26 10° NNW 21:15:00 68° ENE 21:20:33 10° SSE
Atlas Centaur 2 3.8 21:11:33 10° SW 21:16:56 26° SSE 21:22:35 12° ESE
Lacrosse 4 Rocket 2.2 21:15:58 10° NW 21:20:12 54° WSW 21:24:29 10° S
Helios 1B rocket 2.4 21:16:46 10° NNE 21:20:50 59° E 21:24:52 10° S
Cosmos 1428 Rocket 4.5 21:18:05 10° N 21:24:10 67° E 21:30:14 10° SSE
Cosmos 2322 Rocket 2.4 21:20:22 10° SSW 21:25:58 78° WNW 21:31:38 10° NNE
USA 267 3.7 21:19:58 10° NE 21:26:27 66° NW 21:32:55 10° WSW
Resurs 01 Rocket 3.0 21:22:47 10° SSW 21:26:58 39° W 21:31:10 10° NNW
SAR-Lupe-4 3.6 21:28:33 10° S 21:32:08 81° WSW 21:35:45 10° NNW
CZ-4C R/B 4.4 21:27:15 10° NNW 21:32:25 22° NNE 21:38:04 10° E
COSMOS 2428 3.8 21:29:07 11° SSE 21:33:11 22° E 21:37:26 10° NE
Cosmos 1825 2.9 21:29:58 10° NNW 21:33:42 54° W 21:37:24 10° S
Cosmos 2360 Rocket 2.4 21:28:57 10° S 21:34:22 49° ESE 21:39:49 10° NE
OAO 3 Rocket 4.3 21:33:29 10° WSW 21:37:42 29° S 21:40:30 17° SE
Cosmos 2180 Rocket 4.5 21:34:02 10° S 21:40:22 77° E 21:46:43 10° N
Cosmos 1908 Rocket 3.8 21:37:54 10° N 21:42:08 50° ENE 21:45:05 18° SSE
Sich 1 Rocket 3.8 21:39:20 10° N 21:43:44 53° E 21:46:55 18° SSE
Cosmos 968 Rocket 3.6 21:39:29 10° NNW 21:44:40 64° ENE 21:48:26 19° SE
ATLAS 5 CENTAUR R/B 2.4 21:42:42 10° NW 21:48:43 89° NE 21:53:36 19° SE
Cosmos 1408 4.4 21:45:35 10° NNW 21:48:54 32° W 21:52:10 10° SSW
Cosmos 2322 3.8 21:44:01 10° S 21:49:35 57° ESE 21:55:10 10° NNE
Meteor 1-29 3.5 21:51:55 10° N 21:55:22 59° WNW 21:58:45 10° SSW
SL-16 R/B 3.3 21:50:36 10° SW 21:56:03 47° WNW 22:01:32 10° NNE
Cosmos 1782 Rocket 4.0 21:52:25 10° N 21:56:35 42° ENE 21:58:28 27° SE
Cosmos 1867 3.5 21:52:19 10° NNW 21:57:49 89° ENE 22:01:17 23° SSE
ARGOS 3.8 21:56:21 23° ESE 21:59:08 39° ENE 22:04:05 10° N
Cosmos 1733 Rocket 4.2 21:55:34 10° NNW 21:59:48 44° W 22:04:01 10° SSW
Envisat 3.6 21:55:16 10° S 22:00:13 54° W 22:05:14 10° NNW
USA 234 3.3 21:56:41 21° SE 22:01:22 85° SW 22:07:57 10° NW
H-2A R/B 3.3 21:59:46 20° E 22:01:33 25° ENE 22:05:30 10° NNE
Terra 3.8 22:01:51 13° ENE 22:03:08 14° ENE 22:05:39 10° NNE
Okean 2 Rocket 3.6 22:04:22 10° N 22:08:40 41° ENE 22:10:03 32° ESE
Abrixas rocket 3.9 22:07:19 10° WNW 22:10:17 30° N 22:12:18 16° NE
Okean 1-7 3.3 22:08:38 31° SSE 22:10:20 48° E 22:14:35 10° NNE
Cosmos 2237 Rocket 4.0 22:14:04 14° E 22:14:04 14° E 22:15:37 10° ENE
Cosmos 2333 Rocket 3.5 22:13:24 21° E 22:13:24 21° E 22:17:08 10° NE
Cosmos 2278 Rocket 3.7 22:10:55 10° N 22:15:22 23° NE 22:17:43 18° E
Cosmos 1844 Rocket 3.1 22:11:34 10° NNW 22:16:59 49° ENE 22:19:16 31° ESE
YAOGAN 6 3.4 22:21:30 23° SSW 22:23:23 46° W 22:26:53 10° NNW
ERS-1 Rocket 3.2 22:22:03 22° S 22:25:18 66° WSW 22:30:19 10° NNW
MetOp-A 4.1 22:25:28 29° SSE 22:28:18 88° WSW 22:33:42 10° NNW
SeaSat 1 2.7 22:27:56 38° ESE 22:29:34 56° ENE 22:34:25 10° NNW
Milstar 3 4.3 22:25:32 10° WSW 22:30:06 17° SSW 22:31:42 16° S
Cosmos 1703 Rocket 3.8 22:27:00 16° SSW 22:30:28 68° W 22:34:53 10° N
Cosmos 1782 2.9 22:36:14 55° E 22:36:14 55° E 22:40:08 10° NNE
Cosmos 2219 Rocket 2.5 22:37:35 41° ESE 22:38:08 42° ESE 22:43:24 10° NE
Cosmos 2266 Rocket 4.4 22:36:32 10° NNW 22:42:44 62° W 22:47:08 20° SSW
Cosmos 2151 Rocket 4.0 22:38:32 10° N 22:42:50 46° ENE 22:42:57 46° E
NOSS 3-1 (C) 3.5 22:42:31 40° SSE 22:44:04 49° ESE 22:50:11 10° NE
SPOT 1/Viking Rocket 3.5 22:47:41 50° SSE 22:49:04 79° ENE 22:54:18 10° NNW
USA 229 DEB 3.9 22:42:48 10° SW 22:49:37 72° NW 22:56:35 10° NNE
USA 229 3.9 22:42:54 10° SW 22:49:43 72° NW 22:56:42 10° NNE
Cosmos 2221 Rocket 4.2 22:48:15 25° SSW 22:50:36 55° W 22:54:58 10° N
SPOT 5 3.0 22:50:39 44° SSW 22:52:04 68° WSW 22:56:40 10° NNW
Cosmos 1346 Rocket 4.3 22:54:00 25° NE 22:54:00 25° NE 22:56:04 10° NNE
Meteor 1-27 Rocket 4.1 22:53:16 43° E 22:53:32 43° E 22:58:48 10° NNE
Iridium 4 Rocket 4.5 22:50:20 10° NNE 22:52:52 24° NE 22:52:52 24° NE
Cosmos 1777 Rocket 4.3 22:51:18 10° NNW 22:56:31 61° WSW 22:58:03 43° SSW
Cosmos 2263 Rocket 4.4 22:54:49 10° WNW 22:58:18 17° W 23:01:47 10° SW
NOSS 3-1 (A) 3.6 23:00:30 47° ESE 23:00:30 47° ESE 23:06:17 10° NE
Okean 1 Rocket 4.5 22:56:45 10° NNE 22:59:53 26° ENE 22:59:53 26° ENE
NOSS 0 Rocket 4.1 23:01:38 48° ESE 23:01:43 48° ESE 23:07:36 10° NE
ASTEX 1 3.6 23:02:21 54° E 23:02:31 54° E 23:07:22 10° N
IGS 5A 4.3 23:03:41 39° NE 23:03:41 39° NE 23:07:01 10° N
Atlas Centaur 2 3.7 22:59:20 10° WSW 23:05:13 31° S 23:05:13 31° S
Cosmos 1633 3.5 23:02:04 10° N 23:04:45 44° NNE 23:04:45 44° NNE
SL-08 RB Rocket 4.0 23:07:29 52° SW 23:08:09 59° W 23:12:40 10° NNW
Cosmos 1244 Rocket 4.5 23:02:15 10° N 23:08:32 82° W 23:10:33 46° S
H-2A R/B 2.2 23:14:15 65° NNE 23:14:15 65° NNE 23:18:10 10° N
Meteor 1-10 Rocket 4.4 23:12:10 39° SSW 23:14:29 76° W 23:20:22 10° N
MOS 1-B Rocket 4.4 23:12:55 36° SSW 23:15:03 53° W 23:20:33 10° NNW
COSMOS 2428 3.3 23:11:25 10° SW 23:16:59 56° WNW 23:22:38 10° NNE
Meteor 1-11 Rocket 3.5 23:12:32 10° N 23:18:04 73° E 23:18:30 69° ESE
Cosmos 1553 Rocket 3.9 23:17:12 59° SSE 23:18:22 75° E 23:24:35 10° N
Cosmos 2360 Rocket 4.2 23:13:50 10° WSW 23:18:37 27° NW 23:23:25 10° N
SL-08 R/B 4.3 23:13:00 10° N 23:19:10 79° E 23:20:08 64° SSE
CZ-4C R/B 3.0 23:15:11 10° NNW 23:22:15 68° NE 23:24:27 48° ESE
Landsat 7 3.9 23:25:09 71° WSW 23:25:10 71° WSW 23:29:56 10° NNW
Cosmos 1980 3.6 23:28:48 67° E 23:28:48 67° E 23:34:03 10° NNE
Cosmos 1844 3.9 23:23:43 10° NNW 23:29:17 60° WSW 23:29:52 56° SW
ATLAS 3B R/B 4.4 23:24:38 10° NNW 23:30:08 24° NNE 23:33:55 15° ENE
Cosmos 1606 4.1 23:31:23 35° WNW 23:31:23 35° WNW 23:34:33 10° N
ATLAS 5 CENTAUR R/B 4.4 23:28:56 10° WNW 23:32:53 18° WSW 23:35:10 15° SW
SL-19 R/B 4.2 23:28:12 10° NNE 23:34:17 84° ESE 23:34:49 75° S
SL-16 R/B 3.7 23:36:36 23° ENE 23:36:36 23° ENE 23:39:12 10° NE
Cosmos 1300 Rocket 4.1 23:33:06 10° N 23:36:30 54° N 23:36:30 54° N
Cosmos 1536 4.1 23:34:26 10° N 23:36:59 37° N 23:36:59 37° N
Geosat 4.1 23:33:28 10° NNE 23:37:45 64° NE 23:37:45 64° NE
CZ-4B R/B 4.1 23:35:28 10° NNE 23:38:52 44° NE 23:38:52 44° NE
Terra 2.0 23:40:44 66° WNW 23:40:44 66° WNW 23:45:04 10° NNW
H-2A R/B 2.8 23:40:23 40° WSW 23:40:45 41° W 23:45:26 10° NNW
Cosmos 2298 Rocket 4.2 23:43:21 10° NNW 23:48:12 67° NNE 23:48:12 67° NNE
S3M 4.1 23:47:55 57° SW 23:49:01 69° W 23:55:14 10° N
DMSP B5D2-2 4.5 23:44:35 10° N 23:49:46 59° WNW 23:50:21 55° W
Cosmos 1386 Rocket 4.3 23:45:12 10° N 23:51:38 89° E 23:52:02 80° SSE
Spot 4 4.3 23:54:40 58° N 23:54:40 58° N 23:58:32 10° NNW
